Regional Weather Roundup
Issued by NWS

Home | Current Version | Previous Version | Graphics & Text | Print | Product List | Glossary On
Versions: 1 2 3 4 5 6 7 8 9 10 11 12 13 14 15 16 17 18 19 20 21 22 23 24 25 26 27 28 29 30 31 32 33 34 35 36 37 38 39 40 41 42 43 44 45 46 47 48 49 50
000
ASUS43 KLOT 290012
RWRIL

ILLINOIS REGIONAL WEATHER ROUNDUP
NATIONAL WEATHER SERVICE CHICAGO/ROMEOVILLE IL
700 PM CDT SAT MAR 28 2015

NOTE: "FAIR" INDICATES FEW OR NO CLOUDS BELOW 12,000 FEET WITH NO
SIGNIFICANT WEATHER AND/OR OBSTRUCTIONS TO VISIBILITY.

* THESE STATIONS ARE NOT UNDER NWS QUALITY CONTROL. THEY ALSO MAY NOT
  REPORT WEATHER SUCH AS PRECIPITATION OR FOG.

ILZ001-002-007-009-015-016-024-290100-
NORTHWEST ILLINOIS

CITY           SKY/WX    TMP DP  RH WIND       PRES   REMARKS
MOLINE         CLEAR     39  10  30 S9        30.23F WCI  33
6HR MIN TEMP:  37; 6HR MAX TEMP:  42;

STERLING*      CLEAR     39  12  33 S3        30.25F
SAVANNA*       CLEAR     38  11  33 S8        30.24S WCI  32
$$

ILZ003-004-008-010-011-017-018-290100-
NORTH CENTRAL ILLINOIS

CITY           SKY/WX    TMP DP  RH WIND       PRES   REMARKS
ROCKFORD       CLEAR     37  12  35 S8        30.26F WCI  31
6HR MIN TEMP:  37; 6HR MAX TEMP:  41;

FREEPORT*      CLEAR     35  15  44 S6        30.26S WCI  30
ROCHELLE*      CLEAR     36  18  48 S5        30.26S WCI  32
DE KALB*       FAIR      32  13  44 S6        30.26S WCI  27
PERU*          CLEAR     39  13  34 S8        30.27S WCI  33
$$

ILZ005-006-012>014-019>023-290100-
NORTHEAST ILLINOIS

CITY           SKY/WX    TMP DP  RH WIND       PRES   REMARKS
CHICAGO-OHARE  CLEAR     31  10  41 SE9       30.28S WCI  23
6HR MIN TEMP:  31; 6HR MAX TEMP:  36;

CHICAGO-MIDWAY CLEAR     33   8  35 E8        30.30S WCI  26
6HR MIN TEMP:  33; 6HR MAX TEMP:  37;

AURORA         CLEAR     37  11  34 S7        30.26F WCI  32
6HR MIN TEMP:  37; 6HR MAX TEMP:  42;

LANSING*       CLEAR     30   9  41 E6        30.31R WCI  24
JOLIET*        CLEAR     38   8  28 CALM      30.28F
WAUKEGAN       CLEAR     28  13  53 SE10      30.27F WCI  19
6HR MIN TEMP:  28; 6HR MAX TEMP:  31;

DUPAGE AIRPORT CLEAR     35   7  31 SE8       30.26S WCI  29
6HR MIN TEMP:  35; 6HR MAX TEMP:  40;

KANKAKEE*      CLEAR     36  12  36 S3        30.30R
WHEELING       CLEAR     32   7  35 E7        30.30S WCI  26
6HR MIN TEMP:  31; 6HR MAX TEMP:  34;

MORRIS*        FAIR      36  12  36 SE3       30.27S
ROMEOVILLE*    CLEAR     35   8  32 SE7       30.28F WCI  29
NORTHERLY ISL    N/A     28   7  41 E3          N/A
$$

LMZ740>746-290100-
SOUTHERN LAKE MICHIGAN

STATION/POSITION SKY/WX   TEMP    WIND        PRES    VSBY  WAVE
                          AIR SEA DIR/SP/G                  HT/PER
                          (F)     (DEG/KT/KT) (MB)    (MI)  (FT/S)
HARRISON CRIB              28      60/  6/  6   N/A
BURNHAM HARBOR             28      80/  4/  6   N/A
CALUMET HARBOR             28      50/  6/  7 1025.1F
BURNS HARBOR               27      20/  6/  7 1027.1S
MICHIGAN CITY              29     350/  6/  7   N/A
$$

ILZ025>027-034>036-040-047-049-050-058-095>099-290100-
WEST-CENTRAL ILLINOIS

CITY           SKY/WX    TMP DP  RH WIND       PRES   REMARKS
QUINCY         CLEAR     41  19  41 SE8       30.22F
GALESBURG*     CLEAR     38  14  38 S6        30.24F WCI  33
MACOMB*        CLEAR     39  17  41 SE9       30.26F WCI  33
JACKSONVILLE*  CLEAR     40  20  43 SE7       30.26F
PITTSFIELD*    CLEAR     41  23  48 SE8       30.25F
$$

ILZ028>032-037-038-041>044-048-051>054-059>061-290100-
CENTRAL ILLINOIS

CITY           SKY/WX    TMP DP  RH WIND       PRES   REMARKS
PONTIAC        CLEAR     38  16  40 SE3       30.28F
BLOOMINGTON    CLEAR     36  16  44 S7        30.28S WCI  30
DECATUR        CLEAR     38  16  40 SE6       30.28F WCI  33
PEORIA         CLEAR     40  14  34 S9        30.27S
6HR MIN TEMP:  38; 6HR MAX TEMP:  43;

LACON*         CLEAR     38  10  31 SE5       30.26F WCI  35
LINCOLN*       CLEAR     40  18  41 SE5       30.29S
SPRINGFIELD    CLEAR     39  20  46 SE7       30.28S WCI  34
6HR MIN TEMP:  37; 6HR MAX TEMP:  43;

TAYLORVILLE    CLEAR     36  19  51 SE3       30.28F
$$

ILZ033-039-045-046-055>057-062-063-290100-
EAST-CENTRAL ILLINOIS

CITY           SKY/WX    TMP DP  RH WIND       PRES   REMARKS
CHAMPAIGN      CLEAR     37  15  40 SE5       30.28S WCI  33
DANVILLE*      CLEAR     36  13  39 CALM      30.27S
RANTOUL*       CLEAR     38  15  38 E3        30.29S
MATTOON        CLEAR     37  17  44 N3        30.28S
PARIS*         CLEAR     38  15  39 CALM      30.30S
$$

ILZ079-100>102-290100-
SOUTHWEST ILLINOIS

CITY           SKY/WX    TMP DP  RH WIND       PRES   REMARKS
ALTON          CLEAR     39  14  35 SE9       30.28S WCI  33
BELLEVILLE     CLEAR     41  18  39 E7        30.27S
CAHOKIA*       CLEAR     42  17  36 E8        30.27S
SPARTA*        CLEAR     41  20  43 E6        30.29S
$$

ILZ064>066-069>071-074>076-080>082-084>086-088>090-092>094-290100-
SOUTH-CENTRAL ILLINOIS

CITY           SKY/WX    TMP DP  RH WIND       PRES   REMARKS
CARBONDALE     CLEAR     42  17  36 NE7       30.28S
6HR MIN TEMP:  38; 6HR MAX TEMP:  45;

CAIRO*         CLEAR     44  20  39 NE6       30.28S
EFFINGHAM*     CLEAR     38  16  40 E6        30.31S WCI  34
MARION         CLEAR     43  18  36 CALM      30.29S
MT. VERNON     CLEAR     41  14  33 SE7       30.30S
CENTRALIA*     CLEAR     41  16  36 CALM      30.28F
SALEM*         CLEAR     42  16  34 CALM      30.29S
METROPOLIS*    CLEAR     44  21  40 SE3       30.27S
$$

ILZ067-068-072-073-078-083-087-091-290100-
SOUTHEAST ILLINOIS

CITY           SKY/WX    TMP DP  RH WIND       PRES   REMARKS
LAWRENCEVILLE  CLEAR     39  15  37 E3        30.31S
FLORA*         CLEAR     38  17  42 CALM      30.31S
FAIRFIELD*     CLEAR     38  18  42 CALM      30.29F
HARRISBURG*    CLEAR     40  18  40 NE3       30.31S
ROBINSON*      CLEAR     39  14  35 CALM      30.31S
CARMI*         CLEAR     40  15  37 E5        30.30S
$$

ABBREVIATIONS USED IN REMARKS
   TC - TEMPERATURE IN CELSIUS
  WCI - WIND CHILL INDEX
   HX - HEAT INDEX
  VSB - VISIBILITY
$$




USA.gov is the U.S. government's official web portal to all federal, state and local government web resources and services.